This demonstration page uses our WeatherBlox Daily Observations layout. Learn more.

Left ArrowRight Arrow

41.12389, -100.76542

Hourly Observations for July 26, 2022

Temp ( °F °C ) Dew Point ( °F °C ) Humidity (%) Winds ( mph kmh ) Pressure ( in mb ) Visibility ( mi km ) Precip ( " mm )
12:53 am 00:53 Cloudy with Mist and Fog 66 18.9 64 17.8 93 93 SE 7 11 29.95 1014 5 8 0.00 0.00
1:53 am 01:53 Cloudy with Mist and Fog 66 18.9 64 17.8 93 93 SSE 5 7 29.94 1014 5 8 0.00 0.00
2:53 am 02:53 Cloudy 67 19.4 64 17.8 91 91 SSE 6 9 29.93 1013 9 14 0.00 0.00
3:07 am 03:07 Cloudy 67 19.4 64 17.8 91 91 S 5 7 29.89 1012 9 14 0.00 0.00
3:23 am 03:23 Cloudy 67 19.4 64 17.8 91 91 S 6 9 29.88 1012 8 13 0.00 0.00
3:53 am 03:53 Cloudy 67 19.4 64 17.8 91 91 S 7 11 29.92 1013 8 13 0.00 0.00
4:03 am 04:03 Cloudy 67 19.4 64 17.8 91 91 S 8 13 29.88 1012 9 14 0.00 0.00
4:53 am 04:53 Cloudy 67 19.4 64 17.8 91 91 SSE 5 7 29.91 1013 10 16 0.00 0.00
5:53 am 05:53 Cloudy 67 19.4 64 17.8 91 91 SE 5 7 29.90 1013 9 14 0.00 0.00
6:33 am 06:33 Cloudy 67 19.4 64 17.8 91 91 SE 6 9 29.87 1011 7 11 0.00 0.00
6:53 am 06:53 Cloudy 67 19.4 65 18.3 93 93 E 6 9 29.91 1013 9 14 0.00 0.00
7:53 am 07:53 Cloudy with Mist and Fog 67 19.4 65 18.3 93 93 E 7 11 29.94 1014 4 6 0.00 0.00
8:06 am 08:06 Cloudy with Mist and Fog 67 19.4 65 18.3 93 93 E 9 15 29.91 1013 4 6 0.00 0.00
8:26 am 08:26 Cloudy with Mist and Fog 67 19.4 65 18.3 93 93 E 10 17 29.92 1013 3 4 0.00 0.00
8:34 am 08:34 Cloudy with Mist and Fog 67 19.4 65 18.3 93 93 E 7 11 29.92 1013 3 5 0.00 0.00
8:49 am 08:49 Cloudy with Mist and Fog 66 19 64 18 94 94 E 9 15 29.91 1013 3 5 0.00 0.00
8:53 am 08:53 Cloudy with Mist and Fog 67 19.4 65 18.3 93 93 E 10 17 29.96 1014 3 5 0.00 0.00
9:20 am 09:20 Cloudy 68 20 65 18.3 90 90 E 8 13 29.92 1013 7 11 0.00 0.00
9:34 am 09:34 Cloudy 68 20 65 18.3 90 90 ESE 10 17 29.91 1013 10 16 0.00 0.00
9:53 am 09:53 Cloudy 68 20 65 18.3 90 90 E 6 9 29.97 1015 10 16 0.00 0.00
10:35 am 10:35 Cloudy 69 20.6 65 18.3 87 87 SE 6 9 29.92 1013 10 16 0.00 0.00
10:51 am 10:51 Cloudy 70 21 66 19 88 88 SE 9 15 29.90 1013 10 16 0.00 0.00
10:53 am 10:53 Cloudy 70 21.1 65 18.3 84 84 SE 8 13 29.96 1015 10 16 0.00 0.00
11:53 am 11:53 Mostly Cloudy 71 21.7 66 18.9 84 84 S 8 13 29.96 1015 10 16 0.00 0.00
12:10 pm 12:10 Partly Cloudy 72 22.2 66 18.9 82 82 S 10 17 29.88 1012 10 16 0.00 0.00
12:53 pm 12:53 Mostly Sunny 75 23.9 67 19.4 76 76 VRB 6 9 29.94 1014 10 16 0.00 0.00
1:44 pm 13:44 Mostly Cloudy 79 26.1 65 18.3 62 62 WNW 3 6 29.86 1011 10 16 0.00 0.00
1:53 pm 13:53 Mostly Cloudy 78 25.6 66 18.9 67 67 VRB 3 6 29.95 1014 10 16 0.00 0.00
2:53 pm 14:53 Mostly Cloudy 79 26.1 66 18.9 65 65 S 6 9 29.94 1014 10 16 0.00 0.00
3:16 pm 15:16 Partly Cloudy 79 26.1 66 18.9 65 65 VRB 3 6 29.84 1011 10 16 0.00 0.00
3:28 pm 15:28 Mostly Cloudy 81 27.2 67 19.4 62 62 W 5 7 29.83 1010 10 16 0.00 0.00
3:53 pm 15:53 Mostly Cloudy 81 27.2 67 19.4 62 62 undefined N/A 29.93 1014 10 16 0.00 0.00
4:01 pm 16:01 Partly Cloudy 81 27.2 67 19.4 62 62 Calm 29.83 1010 10 16 0.00 0.00
4:53 pm 16:53 Mostly Sunny 83 28.3 68 20 61 61 S 6 9 29.90 1013 10 16 0.00 0.00
5:53 pm 17:53 Mostly Cloudy 83 28.3 68 20 61 61 S 5 7 29.91 1013 10 16 0.00 0.00
6:53 pm 18:53 Partly Cloudy 81 27.2 67 19.4 62 62 E 5 7 29.91 1013 10 16 0.00 0.00
7:53 pm 19:53 Mostly Sunny 81 27.2 63 17.2 54 54 NE 6 9 29.92 1013 10 16 0.00 0.00
8:53 pm 20:53 Partly Cloudy 78 25.6 62 16.7 58 58 NE 6 9 29.95 1014 10 16 0.00 0.00
9:53 pm 21:53 Clear 73 22.8 63 17.2 71 71 ENE 9 15 29.97 1015 10 16 0.00 0.00
10:53 pm 22:53 Clear 69 20.6 62 16.7 78 78 ENE 5 7 30.00 1016 10 16 0.00 0.00
11:53 pm 23:53 Clear 69 20.6 61 16.1 76 76 NE 7 11 30.01 1016 10 16 0.00 0.00

Powered by AerisWeather